EW3957 Weather Reports


time (UTC)temp
C
wind
direction
speed
KPH
gust
KPH
rain 1hr
cm
rain 24hr
cm
rain mn
cm
humidity
%
barometer
mb
20260506214550 25 134 0.0 14.5 0.00 0.00 0.00 49 1009.3
20260506213013 25 74 1.6 12.9 0.00 0.00 0.00 43 1009.6
20260506211542 24 225 1.6 11.3 0.00 0.00 0.00 47 1009.7
20260506210110 23 157 0.0 12.9 0.00 0.00 0.00 45 1010.0
20260506204526 23 196 0.0 9.7 0.00 0.00 0.00 46 1010.3
20260506203055 23 207 0.0 1.6 0.00 0.00 0.00 49 1010.5
20260506201524 22 221 1.6 11.3 0.00 0.00 0.00 45 1010.6
20260506200051 23 344 0.0 8.0 0.00 0.00 0.00 48 1010.8
20260506194505 22 64 3.2 11.3 0.00 0.00 0.00 46 1011.1
20260506193034 22 87 0.0 6.4 0.00 0.00 0.00 45 1011.3
20260506191603 22 221 1.6 8.0 0.00 0.00 0.00 46 1011.7
20260506190018 20 263 1.6 6.4 0.00 0.00 0.00 47 1011.9
20260506184546 20 225 1.6 11.3 0.00 0.00 0.00 46 1012.2
20260506183013 20 202 1.6 9.7 0.00 0.00 0.00 46 1012.3
20260506181542 20 59 0.0 9.7 0.00 0.00 0.00 45 1012.3
20260506180110 20 240 3.2 6.4 0.00 0.00 0.00 45 1012.5
20260506174526 18 51 0.0 8.0 0.00 0.00 0.00 46 1012.6
20260506173108 17 52 0.0 6.4 0.00 0.00 0.00 48 1012.8
20260506171522 16 182 0.0 1.6 0.00 0.00 0.00 49 1013.1
20260506170058 16 55 0.0 0.0 0.00 0.00 0.00 47 1013.2
20260506164506 16 19 0.0 1.6 0.00 0.00 0.00 50 1013.4
20260506163033 16 13 0.0 6.4 0.00 0.00 0.00 48 1013.6
20260506161558 15 355 0.0 4.8 0.00 0.00 0.00 51 1013.5
20260506160015 15 18 0.0 9.7 0.00 0.00 0.00 53 1013.6
20260506154542 13 44 0.0 4.8 0.00 0.00 0.00 55 1013.6
20260506153003 13 17 0.0 4.8 0.00 0.00 0.00 58 1013.5
20260506151531 11 55 0.0 4.8 0.00 0.00 0.00 64 1013.8
20260506150059 10 10 0.0 6.4 0.00 0.00 0.00 76 1013.7
20260506144515 7 33 0.0 3.2 0.00 0.00 0.00 92 1013.6
20260506143044 6 155 0.0 0.0 0.00 0.00 0.00 94 1013.6
20260506141510 4 160 0.0 0.0 0.00 0.00 0.00 93 1013.8
20260506140041 3 155 0.0 0.0 0.00 0.00 0.00 92 1013.8
20260506134557 2 157 0.0 0.0 0.00 0.00 0.00 92 1013.7
20260506133024 2 155 0.0 0.0 0.00 0.00 0.00 92 1013.6
20260506131555 2 152 0.0 0.0 0.00 0.00 0.00 91 1013.5
20260506130006 2 148 0.0 0.0 0.00 0.00 0.00 90 1013.4
20260506124538 2 142 0.0 0.0 0.00 0.00 0.00 90 1013.3
20260506123059 2 142 0.0 0.0 0.00 0.00 0.00 90 1013.1
20260506121525 2 143 0.0 0.0 0.00 0.00 0.00 90 1013.0
20260506120118 2 143 0.0 0.0 0.00 0.00 0.00 89 1012.9
20260506114511 2 143 0.0 0.0 0.00 0.00 0.00 89 1012.9
20260506113037 3 143 0.0 0.0 0.00 0.00 0.00 88 1012.9
20260506111504 3 143 0.0 0.0 0.00 0.00 0.00 87 1013.0
20260506110013 3 143 0.0 0.0 0.00 0.00 0.00 87 1012.9
20260506104542 4 143 0.0 0.0 0.00 0.00 0.00 86 1012.8
20260506103022 5 143 0.0 0.0 0.00 0.00 0.00 84 1012.7
20260506101539 5 143 0.0 0.0 0.00 0.00 0.00 83 1012.7
20260506100108 6 143 0.0 0.0 0.00 0.00 0.00 81 1012.7
20260506094532 6 143 0.0 0.0 0.00 0.00 0.00 79 1012.7
20260506093054 7 142 0.0 0.0 0.00 0.00 0.00 76 1012.6
20260506091523 7 143 0.0 0.0 0.00 0.00 0.00 76 1012.6
20260506090047 7 143 0.0 0.0 0.00 0.00 0.00 76 1012.5
20260506084503 6 143 0.0 0.0 0.00 0.00 0.00 81 1012.4
20260506083034 6 143 0.0 0.0 0.00 0.00 0.00 86 1012.4
20260506081605 5 143 0.0 0.0 0.00 0.00 0.00 87 1012.3
20260506073009 5 142 0.0 0.0 0.00 0.00 0.00 86 1011.9
20260506071548 5 142 0.0 0.0 0.00 0.00 0.00 85 1011.9
20260506070118 5 142 0.0 0.0 0.00 0.00 0.00 85 1011.7
20260506061529 6 142 0.0 0.0 0.00 0.00 0.00 84 1011.3
20260506050128 8 143 0.0 0.0 0.00 0.00 0.00 79 1010.4
20260506044535 8 142 0.0 0.0 0.00 0.00 0.00 79 1010.3
20260506043055 9 142 0.0 0.0 0.00 0.00 0.00 77 1010.2
20260506041524 10 142 0.0 0.0 0.00 0.00 0.00 76 1010.0
20260506040051 11 142 0.0 0.0 0.00 0.00 0.00 73 1009.9
20260506034507 11 142 0.0 0.0 0.00 0.00 0.00 70 1009.9
20260506033035 12 142 0.0 0.0 0.00 0.00 0.00 68 1009.6
20260506031503 13 142 0.0 0.0 0.00 0.00 0.00 65 1009.6
20260506030021 15 142 0.0 0.0 0.00 0.00 0.00 62 1009.3
20260506024547 15 138 0.0 0.0 0.00 0.00 0.00 62 1009.2
20260506023013 17 118 0.0 0.0 0.00 0.00 0.00 50 1009.1
20260506021542 20 106 0.0 0.0 0.00 0.00 0.00 45 1009.1
20260506020110 21 99 0.0 0.0 0.00 0.00 0.00 39 1009.0
20260506014527 22 92 0.0 0.0 0.00 0.00 0.00 33 1008.9
20260506013054 23 67 0.0 0.0 0.00 0.00 0.00 33 1009.0
20260506011525 22 55 0.0 0.0 0.00 0.00 0.00 34 1008.9
20260506010054 22 180 0.0 4.8 0.00 0.00 0.00 32 1009.0
20260506004505 23 103 0.0 12.9 0.00 0.00 0.00 34 1009.1
20260506003034 22 67 0.0 9.7 0.00 0.00 0.00 35 1009.2
20260506001501 23 62 0.0 0.0 0.00 0.00 0.00 29 1009.3
20260506000018 23 340 0.0 1.6 0.00 0.00 0.00 32 1009.5
20260505234609 23 355 0.0 1.6 0.00 0.00 0.00 30 1009.8
20260505233016 22 219 0.0 4.8 0.00 0.00 0.00 32 1009.8
20260505231542 22 339 0.0 1.6 0.00 0.00 0.00 32 1010.0
20260505230111 22 189 0.0 9.7 0.00 0.00 0.00 33 1010.1
20260505224531 22 15 0.0 8.0 0.00 0.00 0.00 35 1010.3
20260505223103 23 5 1.6 8.0 0.00 0.00 0.00 33 1010.5
20260505221521 22 281 0.0 6.4 0.00 0.00 0.00 32 1010.6
20260505220115 22 214 1.6 12.9 0.00 0.00 0.00 34 1010.8